Year,Month,Day,Hour,Minute,Value (Times are PST for temperature in C)
2020,07,05,00,00,11.30
2020,07,05,00,01,11.30
2020,07,05,00,02,11.30
2020,07,05,00,03,11.30
2020,07,05,00,04,11.30
2020,07,05,00,05,11.30
2020,07,05,00,06,11.20
2020,07,05,00,07,11.20
2020,07,05,00,08,11.20
2020,07,05,00,09,11.20
2020,07,05,00,10,11.20
2020,07,05,00,11,11.20
2020,07,05,00,12,11.20
2020,07,05,00,13,11.20
2020,07,05,00,14,11.10
2020,07,05,00,15,11.10
2020,07,05,00,16,11.10
2020,07,05,00,17,11.10
2020,07,05,00,18,11.10
2020,07,05,00,19,11.10
2020,07,05,00,20,11.00
2020,07,05,00,21,11.00
2020,07,05,00,22,11.00
2020,07,05,00,23,11.00
2020,07,05,00,24,11.00
2020,07,05,00,25,10.90
2020,07,05,00,26,10.90
2020,07,05,00,27,10.90
2020,07,05,00,28,10.90
2020,07,05,00,29,10.90
2020,07,05,00,30,10.90
2020,07,05,00,31,10.90
2020,07,05,00,32,10.90
2020,07,05,00,33,10.90
2020,07,05,00,34,10.90
2020,07,05,00,35,10.90
2020,07,05,00,36,10.90
2020,07,05,00,37,10.90
2020,07,05,00,38,10.90
2020,07,05,00,39,10.80
2020,07,05,00,40,10.80
2020,07,05,00,41,10.80
2020,07,05,00,42,10.80
2020,07,05,00,43,10.80
2020,07,05,00,44,10.80
2020,07,05,00,45,10.80
2020,07,05,00,46,10.80
2020,07,05,00,47,10.80
2020,07,05,00,48,10.80
2020,07,05,00,49,10.80
2020,07,05,00,50,10.80
2020,07,05,00,51,10.80
2020,07,05,00,52,10.80
2020,07,05,00,53,10.80
2020,07,05,00,54,10.80
2020,07,05,00,55,10.80
2020,07,05,00,56,10.70
2020,07,05,00,57,10.70
2020,07,05,00,58,10.70
2020,07,05,00,59,10.70
2020,07,05,01,00,10.70
2020,07,05,01,01,10.70
2020,07,05,01,02,10.70
2020,07,05,01,03,10.70
2020,07,05,01,04,10.70
2020,07,05,01,05,10.70
2020,07,05,01,06,10.70
2020,07,05,01,07,10.70
2020,07,05,01,08,10.70
2020,07,05,01,09,10.70
2020,07,05,01,10,10.70
2020,07,05,01,11,10.70
2020,07,05,01,12,10.70
2020,07,05,01,13,10.70
2020,07,05,01,14,10.70
2020,07,05,01,15,10.70
2020,07,05,01,16,10.70
2020,07,05,01,17,10.70
2020,07,05,01,18,10.70
2020,07,05,01,19,10.70
2020,07,05,01,20,10.70
2020,07,05,01,21,10.70
2020,07,05,01,22,10.70
2020,07,05,01,23,10.70
2020,07,05,01,24,10.70
2020,07,05,01,25,10.70
2020,07,05,01,26,10.70
2020,07,05,01,27,10.70
2020,07,05,01,28,10.70
2020,07,05,01,29,10.70
2020,07,05,01,30,10.70
2020,07,05,01,31,10.70
2020,07,05,01,32,10.70
2020,07,05,01,33,10.70
2020,07,05,01,34,10.60
2020,07,05,01,35,10.60
2020,07,05,01,36,10.60
2020,07,05,01,37,10.60
2020,07,05,01,38,10.60
2020,07,05,01,39,10.60
2020,07,05,01,40,10.60
2020,07,05,01,41,10.60
2020,07,05,01,42,10.60
2020,07,05,01,43,10.60
2020,07,05,01,44,10.60
2020,07,05,01,45,10.60
2020,07,05,01,46,10.60
2020,07,05,01,47,10.60
2020,07,05,01,48,10.60
2020,07,05,01,49,10.50
2020,07,05,01,50,10.50
2020,07,05,01,51,10.50
2020,07,05,01,52,10.50
2020,07,05,01,53,10.40
2020,07,05,01,54,10.40
2020,07,05,01,55,10.40
2020,07,05,01,56,10.40
2020,07,05,01,57,10.40
2020,07,05,01,58,10.40
2020,07,05,01,59,10.40
2020,07,05,02,00,10.40
2020,07,05,02,01,10.40
2020,07,05,02,02,10.40
2020,07,05,02,03,10.40
2020,07,05,02,04,10.40
2020,07,05,02,05,10.40
2020,07,05,02,06,10.40
2020,07,05,02,07,10.40
2020,07,05,02,08,10.30
2020,07,05,02,09,10.30
2020,07,05,02,10,10.30
2020,07,05,02,11,10.30
2020,07,05,02,12,10.30
2020,07,05,02,13,10.30
2020,07,05,02,14,10.30
2020,07,05,02,15,10.30
2020,07,05,02,16,10.30
2020,07,05,02,17,10.30
2020,07,05,02,18,10.30
2020,07,05,02,19,10.30
2020,07,05,02,20,10.30
2020,07,05,02,21,10.30
2020,07,05,02,22,10.30
2020,07,05,02,23,10.30
2020,07,05,02,24,10.30
2020,07,05,02,25,10.30
2020,07,05,02,26,10.30
2020,07,05,02,27,10.30
2020,07,05,02,28,10.30
2020,07,05,02,29,10.30
2020,07,05,02,30,10.30
2020,07,05,02,31,10.30
2020,07,05,02,32,10.20
2020,07,05,02,33,10.20
2020,07,05,02,34,10.20
2020,07,05,02,35,10.20
2020,07,05,02,36,10.20
2020,07,05,02,37,10.20
2020,07,05,02,38,10.20
2020,07,05,02,39,10.20
2020,07,05,02,40,10.20
2020,07,05,02,41,10.20
2020,07,05,02,42,10.20
2020,07,05,02,43,10.20
2020,07,05,02,44,10.20
2020,07,05,02,45,10.20
2020,07,05,02,46,10.20
2020,07,05,02,47,10.20
2020,07,05,02,48,10.20
2020,07,05,02,49,10.10
2020,07,05,02,50,10.10
2020,07,05,02,51,10.10
2020,07,05,02,52,10.10
2020,07,05,02,53,10.10
2020,07,05,02,54,10.10
2020,07,05,02,55,10.10
2020,07,05,02,56,10.10
2020,07,05,02,57,10.10
2020,07,05,02,58,10.10
2020,07,05,02,59,10.10
2020,07,05,03,00,10.10
2020,07,05,03,01,10.10
2020,07,05,03,02,10.10
2020,07,05,03,03,10.00
2020,07,05,03,04,10.00
2020,07,05,03,05,10.00
2020,07,05,03,06,10.00
2020,07,05,03,07,10.00
2020,07,05,03,08,10.00
2020,07,05,03,09,10.00
2020,07,05,03,10,10.00
2020,07,05,03,11,10.00
2020,07,05,03,12,10.00
2020,07,05,03,13,10.00
2020,07,05,03,14,10.00
2020,07,05,03,15,10.00
2020,07,05,03,16,10.00
2020,07,05,03,17,10.00
2020,07,05,03,18,10.00
2020,07,05,03,19,10.00
2020,07,05,03,20,9.90
2020,07,05,03,21,9.90
2020,07,05,03,22,9.90
2020,07,05,03,23,9.90
2020,07,05,03,24,9.90
2020,07,05,03,25,9.90
2020,07,05,03,26,9.90
2020,07,05,03,27,9.90
2020,07,05,03,28,9.90
2020,07,05,03,29,9.90
2020,07,05,03,30,9.80
2020,07,05,03,31,9.80
2020,07,05,03,32,9.80
2020,07,05,03,33,9.80
2020,07,05,03,34,9.80
2020,07,05,03,35,9.80
2020,07,05,03,36,9.80
2020,07,05,03,37,9.80
2020,07,05,03,38,9.80
2020,07,05,03,39,9.80
2020,07,05,03,40,9.80
2020,07,05,03,41,9.80
2020,07,05,03,42,9.80
2020,07,05,03,43,9.80
2020,07,05,03,44,9.80
2020,07,05,03,45,9.80
2020,07,05,03,46,9.80
2020,07,05,03,47,9.80
2020,07,05,03,48,9.80
2020,07,05,03,49,9.80
2020,07,05,03,50,9.80
2020,07,05,03,51,9.80
2020,07,05,03,52,9.80
2020,07,05,03,53,9.80
2020,07,05,03,54,9.80
2020,07,05,03,55,9.80
2020,07,05,03,56,9.80
2020,07,05,03,57,9.70
2020,07,05,03,58,9.70
2020,07,05,03,59,9.70
2020,07,05,04,00,9.70
2020,07,05,04,01,9.70
2020,07,05,04,02,9.70
2020,07,05,04,03,9.70
2020,07,05,04,04,9.70
2020,07,05,04,05,9.70
2020,07,05,04,06,9.70
2020,07,05,04,07,9.70
2020,07,05,04,08,9.70
2020,07,05,04,09,9.70
2020,07,05,04,10,9.70
2020,07,05,04,11,9.70
2020,07,05,04,12,9.70
2020,07,05,04,13,9.70
2020,07,05,04,14,9.70
2020,07,05,04,15,9.70
2020,07,05,04,16,9.60
2020,07,05,04,17,9.60
2020,07,05,04,18,9.60
2020,07,05,04,19,9.60
2020,07,05,04,20,9.60
2020,07,05,04,21,9.60
2020,07,05,04,22,9.60
2020,07,05,04,23,9.60
2020,07,05,04,24,9.60
2020,07,05,04,25,9.60
2020,07,05,04,26,9.60
2020,07,05,04,27,9.60
2020,07,05,04,28,9.60
2020,07,05,04,29,9.60
2020,07,05,04,30,9.60
2020,07,05,04,31,9.60
2020,07,05,04,32,9.50
2020,07,05,04,33,9.50
2020,07,05,04,34,9.50
2020,07,05,04,35,9.50
2020,07,05,04,36,9.50
2020,07,05,04,37,9.50
2020,07,05,04,38,9.50
2020,07,05,04,39,9.50
2020,07,05,04,40,9.50
2020,07,05,04,41,9.50
2020,07,05,04,42,9.50
2020,07,05,04,43,9.50
2020,07,05,04,44,9.60
2020,07,05,04,45,9.60
2020,07,05,04,46,9.60
2020,07,05,04,47,9.60
2020,07,05,04,48,9.60
2020,07,05,04,49,9.60
2020,07,05,04,50,9.60
2020,07,05,04,51,9.60
2020,07,05,04,52,9.60
2020,07,05,04,53,9.60
2020,07,05,04,54,9.60
2020,07,05,04,55,9.60
2020,07,05,04,56,9.60
2020,07,05,04,57,9.60
2020,07,05,04,58,9.60
2020,07,05,04,59,9.60
2020,07,05,05,00,9.60
2020,07,05,05,01,9.60
2020,07,05,05,02,9.60
2020,07,05,05,03,9.60
2020,07,05,05,04,9.60
2020,07,05,05,05,9.70
2020,07,05,05,06,9.70
2020,07,05,05,07,9.70
2020,07,05,05,08,9.60
2020,07,05,05,09,9.60
2020,07,05,05,10,9.60
2020,07,05,05,11,9.60
2020,07,05,05,12,9.60
2020,07,05,05,13,9.60
2020,07,05,05,14,9.60
2020,07,05,05,15,9.60
2020,07,05,05,16,9.60
2020,07,05,05,17,9.60
2020,07,05,05,18,9.60
2020,07,05,05,19,9.70
2020,07,05,05,20,9.70
2020,07,05,05,21,9.70
2020,07,05,05,22,9.70
2020,07,05,05,23,9.70
2020,07,05,05,24,9.70
2020,07,05,05,25,9.70
2020,07,05,05,26,9.70
2020,07,05,05,27,9.70
2020,07,05,05,28,9.70
2020,07,05,05,29,9.70
2020,07,05,05,30,9.70
2020,07,05,05,31,9.70
2020,07,05,05,32,9.70
2020,07,05,05,33,9.70
2020,07,05,05,34,9.70
2020,07,05,05,35,9.70
2020,07,05,05,36,9.70
2020,07,05,05,37,9.80
2020,07,05,05,38,9.80
2020,07,05,05,39,9.80
2020,07,05,05,40,9.80
2020,07,05,05,41,9.80
2020,07,05,05,42,9.80
2020,07,05,05,43,9.80
2020,07,05,05,44,9.80
2020,07,05,05,45,9.80
2020,07,05,05,46,9.80
2020,07,05,05,47,9.80
2020,07,05,05,48,9.80
2020,07,05,05,49,9.80
2020,07,05,05,50,9.80
2020,07,05,05,51,9.80
2020,07,05,05,52,9.80
2020,07,05,05,53,9.90
2020,07,05,05,54,9.80
2020,07,05,05,55,9.80
2020,07,05,05,56,9.90
2020,07,05,05,57,9.80
2020,07,05,05,58,9.80
2020,07,05,05,59,9.90
2020,07,05,06,00,9.90
2020,07,05,06,01,9.90
2020,07,05,06,02,9.90
2020,07,05,06,03,9.90
2020,07,05,06,04,9.90
2020,07,05,06,05,9.90
2020,07,05,06,06,9.90
2020,07,05,06,07,9.90
2020,07,05,06,08,9.90
2020,07,05,06,09,9.90
2020,07,05,06,10,9.90
2020,07,05,06,11,10.00
2020,07,05,06,12,10.00
2020,07,05,06,13,10.00
2020,07,05,06,14,10.00
2020,07,05,06,15,10.00
2020,07,05,06,16,10.00
2020,07,05,06,17,10.10
2020,07,05,06,18,10.10
2020,07,05,06,19,10.10
2020,07,05,06,20,10.10
2020,07,05,06,21,10.10
2020,07,05,06,22,10.10
2020,07,05,06,23,10.10
2020,07,05,06,24,10.20
2020,07,05,06,25,10.20
2020,07,05,06,26,10.20
2020,07,05,06,27,10.20
2020,07,05,06,28,10.20
2020,07,05,06,29,10.20
2020,07,05,06,30,10.30
2020,07,05,06,31,10.20
2020,07,05,06,32,10.30
2020,07,05,06,33,10.30
2020,07,05,06,34,10.30
2020,07,05,06,35,10.30
2020,07,05,06,36,10.30
2020,07,05,06,37,10.30
2020,07,05,06,38,10.30
2020,07,05,06,39,10.40
2020,07,05,06,40,10.40
2020,07,05,06,41,10.40
2020,07,05,06,42,10.40
2020,07,05,06,43,10.40
2020,07,05,06,44,10.40
2020,07,05,06,45,10.40
2020,07,05,06,46,10.50
2020,07,05,06,47,10.50
2020,07,05,06,48,10.50
2020,07,05,06,49,10.50
2020,07,05,06,50,10.60
2020,07,05,06,51,10.60
2020,07,05,06,52,10.60
2020,07,05,06,53,10.60
2020,07,05,06,54,10.60
2020,07,05,06,55,10.70
2020,07,05,06,56,10.70
2020,07,05,06,57,10.70
2020,07,05,06,58,10.70
2020,07,05,06,59,10.80
2020,07,05,07,00,10.80
2020,07,05,07,01,10.80
2020,07,05,07,02,10.90
2020,07,05,07,03,10.90
2020,07,05,07,04,10.90
2020,07,05,07,05,10.90
2020,07,05,07,06,11.00
2020,07,05,07,07,11.00
2020,07,05,07,08,11.10
2020,07,05,07,09,11.10
2020,07,05,07,10,11.10
2020,07,05,07,11,11.20
2020,07,05,07,12,11.20
2020,07,05,07,13,11.30
2020,07,05,07,14,11.30
2020,07,05,07,15,11.30
2020,07,05,07,16,11.40
2020,07,05,07,17,11.40
2020,07,05,07,18,11.50
2020,07,05,07,19,11.60
2020,07,05,07,20,11.60
2020,07,05,07,21,11.70
2020,07,05,07,22,11.70
2020,07,05,07,23,11.70
2020,07,05,07,24,11.80
2020,07,05,07,25,11.80
2020,07,05,07,26,11.90
2020,07,05,07,27,11.90
2020,07,05,07,28,12.00
2020,07,05,07,29,12.10
2020,07,05,07,30,12.10
2020,07,05,07,31,12.10
2020,07,05,07,32,12.20
2020,07,05,07,33,12.20
2020,07,05,07,34,12.30
2020,07,05,07,35,12.30
2020,07,05,07,36,12.30
2020,07,05,07,37,12.40
2020,07,05,07,38,12.40
2020,07,05,07,39,12.40
2020,07,05,07,40,12.50
2020,07,05,07,41,12.50
2020,07,05,07,42,12.50
2020,07,05,07,43,12.60
2020,07,05,07,44,12.60
2020,07,05,07,45,12.60
2020,07,05,07,46,12.70
2020,07,05,07,47,12.70
2020,07,05,07,48,12.70
2020,07,05,07,49,12.70
2020,07,05,07,50,12.70
2020,07,05,07,51,12.80
2020,07,05,07,52,12.80
2020,07,05,07,53,12.80
2020,07,05,07,54,12.80
2020,07,05,07,55,12.80
2020,07,05,07,56,12.90
2020,07,05,07,57,12.90
2020,07,05,07,58,12.90
2020,07,05,07,59,12.90
2020,07,05,08,00,13.00
2020,07,05,08,01,13.00
2020,07,05,08,02,13.10
2020,07,05,08,03,13.10
2020,07,05,08,04,13.10
2020,07,05,08,05,13.10
2020,07,05,08,06,13.10
2020,07,05,08,07,13.20
2020,07,05,08,08,13.20
2020,07,05,08,09,13.20
2020,07,05,08,10,13.20
2020,07,05,08,11,13.20
2020,07,05,08,12,13.20
2020,07,05,08,13,13.20
2020,07,05,08,14,13.20
2020,07,05,08,15,13.30
2020,07,05,08,16,13.30
2020,07,05,08,17,13.30
2020,07,05,08,18,13.30
2020,07,05,08,19,13.30
2020,07,05,08,20,13.30
2020,07,05,08,21,13.40
2020,07,05,08,22,13.40
2020,07,05,08,23,13.40
2020,07,05,08,24,13.40
2020,07,05,08,25,13.50
2020,07,05,08,26,13.50
2020,07,05,08,27,13.60
2020,07,05,08,28,13.60
2020,07,05,08,29,13.60
2020,07,05,08,30,13.60
2020,07,05,08,31,13.60
2020,07,05,08,32,13.70
2020,07,05,08,33,13.70
2020,07,05,08,34,13.70
2020,07,05,08,35,13.70
2020,07,05,08,36,13.70
2020,07,05,08,37,13.70
2020,07,05,08,38,13.70
2020,07,05,08,39,13.70
2020,07,05,08,40,13.80
2020,07,05,08,41,13.80
2020,07,05,08,42,13.80
2020,07,05,08,43,13.80
2020,07,05,08,44,13.90
2020,07,05,08,45,13.90
2020,07,05,08,46,13.90
2020,07,05,08,47,13.90
2020,07,05,08,48,13.90
2020,07,05,08,49,14.00
2020,07,05,08,50,13.90
2020,07,05,08,51,13.90
2020,07,05,08,52,13.90
2020,07,05,08,53,13.90
2020,07,05,08,54,14.00
2020,07,05,08,55,14.00
2020,07,05,08,56,14.00
2020,07,05,08,57,13.90
2020,07,05,08,58,13.90
2020,07,05,08,59,13.90
2020,07,05,09,00,13.90
2020,07,05,09,01,13.90
2020,07,05,09,02,13.80
2020,07,05,09,03,13.80
2020,07,05,09,04,13.80
2020,07,05,09,05,13.90
2020,07,05,09,06,13.90
2020,07,05,09,07,13.90
2020,07,05,09,08,14.00
2020,07,05,09,09,14.00
2020,07,05,09,10,14.10
2020,07,05,09,11,14.10
2020,07,05,09,12,14.20
2020,07,05,09,13,14.20
2020,07,05,09,14,14.20
2020,07,05,09,15,14.30
2020,07,05,09,16,14.30
2020,07,05,09,17,14.40
2020,07,05,09,18,14.50
2020,07,05,09,19,14.50
2020,07,05,09,20,14.60
2020,07,05,09,21,14.70
2020,07,05,09,22,14.70
2020,07,05,09,23,14.80
2020,07,05,09,24,14.90
2020,07,05,09,25,14.90
2020,07,05,09,26,14.90
2020,07,05,09,27,15.00
2020,07,05,09,28,15.10
2020,07,05,09,29,15.10
2020,07,05,09,30,15.20
2020,07,05,09,31,15.30
2020,07,05,09,32,15.30
2020,07,05,09,33,15.30
2020,07,05,09,34,15.40
2020,07,05,09,35,15.50
2020,07,05,09,36,15.60
2020,07,05,09,37,15.70
2020,07,05,09,38,15.70
2020,07,05,09,39,15.70
2020,07,05,09,40,15.70
2020,07,05,09,41,15.80
2020,07,05,09,42,15.80
2020,07,05,09,43,15.90
2020,07,05,09,44,15.90
2020,07,05,09,45,15.90
2020,07,05,09,46,16.00
2020,07,05,09,47,16.00
2020,07,05,09,48,16.10
2020,07,05,09,49,16.20
2020,07,05,09,50,16.20
2020,07,05,09,51,16.30
2020,07,05,09,52,16.40
2020,07,05,09,53,16.40
2020,07,05,09,54,16.60
2020,07,05,09,55,16.60
2020,07,05,09,56,16.70
2020,07,05,09,57,16.80
2020,07,05,09,58,16.90
2020,07,05,09,59,16.90
2020,07,05,10,00,17.00
2020,07,05,10,01,17.00
2020,07,05,10,02,17.00
2020,07,05,10,03,17.00
2020,07,05,10,04,17.10
2020,07,05,10,05,17.10
2020,07,05,10,06,17.10
2020,07,05,10,07,17.20
2020,07,05,10,08,17.20
2020,07,05,10,09,17.20
2020,07,05,10,10,17.20
2020,07,05,10,11,17.30
2020,07,05,10,12,17.30
2020,07,05,10,13,17.30
2020,07,05,10,14,17.30
2020,07,05,10,15,17.30
2020,07,05,10,16,17.40
2020,07,05,10,17,17.40
2020,07,05,10,18,17.50
2020,07,05,10,19,17.50
2020,07,05,10,20,17.60
2020,07,05,10,21,17.60
2020,07,05,10,22,17.60
2020,07,05,10,23,17.60
2020,07,05,10,24,17.60
2020,07,05,10,25,17.60
2020,07,05,10,26,17.70
2020,07,05,10,27,17.70
2020,07,05,10,28,17.80
2020,07,05,10,29,17.80
2020,07,05,10,30,17.80
2020,07,05,10,31,17.80
2020,07,05,10,32,17.90
2020,07,05,10,33,17.90
2020,07,05,10,34,17.90
2020,07,05,10,35,18.00
2020,07,05,10,36,18.00
2020,07,05,10,37,18.00
2020,07,05,10,38,18.10
2020,07,05,10,39,18.10
2020,07,05,10,40,18.10
2020,07,05,10,41,18.10
2020,07,05,10,42,18.10
2020,07,05,10,43,18.10
2020,07,05,10,44,18.20
2020,07,05,10,45,18.20
2020,07,05,10,46,18.20
2020,07,05,10,47,18.20
2020,07,05,10,48,18.30
2020,07,05,10,49,18.30
2020,07,05,10,50,18.30
2020,07,05,10,51,18.40
2020,07,05,10,52,18.40
2020,07,05,10,53,18.40
2020,07,05,10,54,18.50
2020,07,05,10,55,18.50
2020,07,05,10,56,18.60
2020,07,05,10,57,18.70
2020,07,05,10,58,18.80
2020,07,05,10,59,19.00
2020,07,05,11,00,19.10
2020,07,05,11,01,19.20
2020,07,05,11,02,19.40
2020,07,05,11,03,19.50
2020,07,05,11,04,19.60
2020,07,05,11,05,19.70
2020,07,05,11,06,19.70
2020,07,05,11,07,19.80
2020,07,05,11,08,19.80
2020,07,05,11,09,19.90
2020,07,05,11,10,20.00
2020,07,05,11,11,20.10
2020,07,05,11,12,20.10
2020,07,05,11,13,20.20
2020,07,05,11,14,20.20
2020,07,05,11,15,20.20
2020,07,05,11,16,20.20
2020,07,05,11,17,20.20
2020,07,05,11,18,20.20
2020,07,05,11,19,20.20
2020,07,05,11,20,20.20
2020,07,05,11,21,20.20
2020,07,05,11,22,20.10
2020,07,05,11,23,20.10
2020,07,05,11,24,20.10
2020,07,05,11,25,20.00
2020,07,05,11,26,20.00
2020,07,05,11,27,19.90
2020,07,05,11,28,19.90
2020,07,05,11,29,19.90
2020,07,05,11,30,19.90
2020,07,05,11,31,20.00
2020,07,05,11,32,20.00
2020,07,05,11,33,20.00
2020,07,05,11,34,20.10
2020,07,05,11,35,20.10
2020,07,05,11,36,20.10
2020,07,05,11,37,20.10
2020,07,05,11,38,20.10
2020,07,05,11,39,20.10
2020,07,05,11,40,20.10
2020,07,05,11,41,20.10
2020,07,05,11,42,20.20
2020,07,05,11,43,20.20
2020,07,05,11,44,20.20
2020,07,05,11,45,20.20
2020,07,05,11,46,20.20
2020,07,05,11,47,20.20
2020,07,05,11,48,20.20
2020,07,05,11,49,20.30
2020,07,05,11,50,20.30
2020,07,05,11,51,20.40
2020,07,05,11,52,20.40
2020,07,05,11,53,20.50
2020,07,05,11,54,20.50
2020,07,05,11,55,20.60
2020,07,05,11,56,20.60
2020,07,05,11,57,20.60
2020,07,05,11,58,20.60
2020,07,05,11,59,20.60
2020,07,05,12,00,20.70
2020,07,05,12,01,20.70
2020,07,05,12,02,20.70
2020,07,05,12,03,20.80
2020,07,05,12,04,20.80
2020,07,05,12,05,20.80
2020,07,05,12,06,20.70
2020,07,05,12,07,20.70
2020,07,05,12,08,20.60
2020,07,05,12,09,20.50
2020,07,05,12,10,20.40
2020,07,05,12,11,20.40
2020,07,05,12,12,20.30
2020,07,05,12,13,20.30
2020,07,05,12,14,20.20
2020,07,05,12,15,20.20
2020,07,05,12,16,20.10
2020,07,05,12,17,20.00
2020,07,05,12,18,20.00
2020,07,05,12,19,19.90
2020,07,05,12,20,19.90
2020,07,05,12,21,19.80
2020,07,05,12,22,19.80
2020,07,05,12,23,19.80
2020,07,05,12,24,19.80
2020,07,05,12,25,19.80
2020,07,05,12,26,19.80
2020,07,05,12,27,19.80
2020,07,05,12,28,19.80
2020,07,05,12,29,19.80
2020,07,05,12,30,19.80
2020,07,05,12,31,19.80
2020,07,05,12,32,19.80
2020,07,05,12,33,19.80
2020,07,05,12,34,19.80
2020,07,05,12,35,19.80
2020,07,05,12,36,19.80
2020,07,05,12,37,19.80
2020,07,05,12,38,19.80
2020,07,05,12,39,19.80
2020,07,05,12,40,19.80
2020,07,05,12,41,19.70
2020,07,05,12,42,19.70
2020,07,05,12,43,19.70
2020,07,05,12,44,19.70
2020,07,05,12,45,19.70
2020,07,05,12,46,19.60
2020,07,05,12,47,19.60
2020,07,05,12,48,19.60
2020,07,05,12,49,19.60
2020,07,05,12,50,19.50
2020,07,05,12,51,19.50
2020,07,05,12,52,19.50
2020,07,05,12,53,19.50
2020,07,05,12,54,19.50
2020,07,05,12,55,19.40
2020,07,05,12,56,19.40
2020,07,05,12,57,19.40
2020,07,05,12,58,19.40
2020,07,05,12,59,19.40
2020,07,05,13,00,19.40
2020,07,05,13,01,19.30
2020,07,05,13,02,19.30
2020,07,05,13,03,19.30
2020,07,05,13,04,19.30
2020,07,05,13,05,19.40
2020,07,05,13,06,19.50
2020,07,05,13,07,19.50
2020,07,05,13,08,19.60
2020,07,05,13,09,19.60
2020,07,05,13,10,19.60
2020,07,05,13,11,19.70
2020,07,05,13,12,19.70
2020,07,05,13,13,19.70
2020,07,05,13,14,19.60
2020,07,05,13,15,19.60
2020,07,05,13,16,19.60
2020,07,05,13,17,19.60
2020,07,05,13,18,19.60
2020,07,05,13,19,19.60
2020,07,05,13,20,19.50
2020,07,05,13,21,19.50
2020,07,05,13,22,19.50
2020,07,05,13,23,19.50
2020,07,05,13,24,19.50
2020,07,05,13,25,19.50
2020,07,05,13,26,19.50
2020,07,05,13,27,19.50
2020,07,05,13,28,19.50
2020,07,05,13,29,19.50
2020,07,05,13,30,19.50
2020,07,05,13,31,19.50
2020,07,05,13,32,19.50
2020,07,05,13,33,19.50
2020,07,05,13,34,19.40
2020,07,05,13,35,19.40
2020,07,05,13,36,19.40
2020,07,05,13,37,19.40
2020,07,05,13,38,19.40
2020,07,05,13,39,19.40
2020,07,05,13,40,19.40
2020,07,05,13,41,19.40
2020,07,05,13,42,19.40
2020,07,05,13,43,19.40
2020,07,05,13,44,19.40
2020,07,05,13,45,19.40
2020,07,05,13,46,19.40
2020,07,05,13,47,19.50
2020,07,05,13,48,19.50
2020,07,05,13,49,19.50
2020,07,05,13,50,19.50
2020,07,05,13,51,19.50
2020,07,05,13,52,19.50
2020,07,05,13,53,19.50
2020,07,05,13,54,19.50
2020,07,05,13,55,19.60
2020,07,05,13,56,19.60
2020,07,05,13,57,19.60
2020,07,05,13,58,19.50
2020,07,05,13,59,19.50
2020,07,05,14,00,19.50
2020,07,05,14,01,19.50
2020,07,05,14,02,19.50
2020,07,05,14,03,19.50
2020,07,05,14,04,19.40
2020,07,05,14,05,19.50
2020,07,05,14,06,19.50
2020,07,05,14,07,19.50
2020,07,05,14,08,19.50
2020,07,05,14,09,19.50
2020,07,05,14,10,19.50
2020,07,05,14,11,19.50
2020,07,05,14,12,19.60
2020,07,05,14,13,19.60
2020,07,05,14,14,19.70
2020,07,05,14,15,19.70
2020,07,05,14,16,19.80
2020,07,05,14,17,19.80
2020,07,05,14,18,19.80
2020,07,05,14,19,19.70
2020,07,05,14,20,19.60
2020,07,05,14,21,19.50
2020,07,05,14,22,19.40
2020,07,05,14,23,19.30
2020,07,05,14,24,19.20
2020,07,05,14,25,19.10
2020,07,05,14,26,19.00
2020,07,05,14,27,18.90
2020,07,05,14,28,18.90
2020,07,05,14,29,18.90
2020,07,05,14,30,18.90
2020,07,05,14,31,18.90
2020,07,05,14,32,18.90
2020,07,05,14,33,19.00
2020,07,05,14,34,19.00
2020,07,05,14,35,19.10
2020,07,05,14,36,19.10
2020,07,05,14,37,19.20
2020,07,05,14,38,19.20
2020,07,05,14,39,19.30
2020,07,05,14,40,19.30
2020,07,05,14,41,19.40
2020,07,05,14,42,19.40
2020,07,05,14,43,19.50
2020,07,05,14,44,19.50
2020,07,05,14,45,19.50
2020,07,05,14,46,19.50
2020,07,05,14,47,19.50
2020,07,05,14,48,19.40
2020,07,05,14,49,19.40
2020,07,05,14,50,19.40
2020,07,05,14,51,19.40
2020,07,05,14,52,19.40
2020,07,05,14,53,19.40
2020,07,05,14,54,19.50
2020,07,05,14,55,19.50
2020,07,05,14,56,19.40
2020,07,05,14,57,19.40
2020,07,05,14,58,19.30
2020,07,05,14,59,19.30
2020,07,05,15,00,19.20
2020,07,05,15,01,19.20
2020,07,05,15,02,19.20
2020,07,05,15,03,19.10
2020,07,05,15,04,19.00
2020,07,05,15,05,19.00
2020,07,05,15,06,18.90
2020,07,05,15,07,18.80
2020,07,05,15,08,18.70
2020,07,05,15,09,18.70
2020,07,05,15,10,18.70
2020,07,05,15,11,18.70
2020,07,05,15,12,18.70
2020,07,05,15,13,18.70
2020,07,05,15,14,18.80
2020,07,05,15,15,18.90
2020,07,05,15,16,18.90
2020,07,05,15,17,19.00
2020,07,05,15,18,19.00
2020,07,05,15,19,19.10
2020,07,05,15,20,19.00
2020,07,05,15,21,19.00
2020,07,05,15,22,18.90
2020,07,05,15,23,18.90
2020,07,05,15,24,18.90
2020,07,05,15,25,18.90
2020,07,05,15,26,18.90
2020,07,05,15,27,18.90
2020,07,05,15,28,18.90
2020,07,05,15,29,18.80
2020,07,05,15,30,18.80
2020,07,05,15,31,18.80
2020,07,05,15,32,18.70
2020,07,05,15,33,18.70
2020,07,05,15,34,18.70
2020,07,05,15,35,18.70
2020,07,05,15,36,18.70
2020,07,05,15,37,18.70
2020,07,05,15,38,18.70
2020,07,05,15,39,18.70
2020,07,05,15,40,18.70
2020,07,05,15,41,18.70
2020,07,05,15,42,18.70
2020,07,05,15,43,18.70
2020,07,05,15,44,18.70
2020,07,05,15,45,18.60
2020,07,05,15,46,18.60
2020,07,05,15,47,18.60
2020,07,05,15,48,18.70
2020,07,05,15,49,18.70
2020,07,05,15,50,18.70
2020,07,05,15,51,18.70
2020,07,05,15,52,18.70
2020,07,05,15,53,18.70
2020,07,05,15,54,18.70
2020,07,05,15,55,18.70
2020,07,05,15,56,18.70
2020,07,05,15,57,18.70
2020,07,05,15,58,18.70
2020,07,05,15,59,18.70
2020,07,05,16,00,18.60
2020,07,05,16,01,18.60
2020,07,05,16,02,18.60
2020,07,05,16,03,18.60
2020,07,05,16,04,18.60
2020,07,05,16,05,18.60
2020,07,05,16,06,18.60
2020,07,05,16,07,18.60
2020,07,05,16,08,18.60
2020,07,05,16,09,18.60
2020,07,05,16,10,18.60
2020,07,05,16,11,18.60
2020,07,05,16,12,18.70
2020,07,05,16,13,18.70
2020,07,05,16,14,18.70
2020,07,05,16,15,18.60
2020,07,05,16,16,18.60
2020,07,05,16,17,18.60
2020,07,05,16,18,18.60
2020,07,05,16,19,18.60
2020,07,05,16,20,18.70
2020,07,05,16,21,18.70
2020,07,05,16,22,18.70
2020,07,05,16,23,18.70
2020,07,05,16,24,18.80
2020,07,05,16,25,18.80
2020,07,05,16,26,18.80
2020,07,05,16,27,18.80
2020,07,05,16,28,18.80
2020,07,05,16,29,18.80
2020,07,05,16,30,18.80
2020,07,05,16,31,18.80
2020,07,05,16,32,18.80
2020,07,05,16,33,18.90
2020,07,05,16,34,18.80
2020,07,05,16,35,18.80
2020,07,05,16,36,18.70
2020,07,05,16,37,18.70
2020,07,05,16,38,18.70
2020,07,05,16,39,18.70
2020,07,05,16,40,18.60
2020,07,05,16,41,18.60
2020,07,05,16,42,18.60
2020,07,05,16,43,18.60
2020,07,05,16,44,18.60
2020,07,05,16,45,18.60
2020,07,05,16,46,18.60
2020,07,05,16,47,18.70
2020,07,05,16,48,18.70
2020,07,05,16,49,18.70
2020,07,05,16,50,18.70
2020,07,05,16,51,18.70
2020,07,05,16,52,18.70
2020,07,05,16,53,18.70
2020,07,05,16,54,18.70
2020,07,05,16,55,18.70
2020,07,05,16,56,18.60
2020,07,05,16,57,18.60
2020,07,05,16,58,18.60
2020,07,05,16,59,18.60
2020,07,05,17,00,18.60
2020,07,05,17,01,18.60
2020,07,05,17,02,18.60
2020,07,05,17,03,18.60
2020,07,05,17,04,18.60
2020,07,05,17,05,18.60
2020,07,05,17,06,18.60
2020,07,05,17,07,18.60
2020,07,05,17,08,18.70
2020,07,05,17,09,18.70
2020,07,05,17,10,18.80
2020,07,05,17,11,18.90
2020,07,05,17,12,19.00
2020,07,05,17,13,19.00
2020,07,05,17,14,19.10
2020,07,05,17,15,19.20
2020,07,05,17,16,19.20
2020,07,05,17,17,19.30
2020,07,05,17,18,19.50
2020,07,05,17,19,19.60
2020,07,05,17,20,19.70
2020,07,05,17,21,19.80
2020,07,05,17,22,20.00
2020,07,05,17,23,20.10
2020,07,05,17,24,20.20
2020,07,05,17,25,20.30
2020,07,05,17,26,20.30